Volver al catálogo

COSMOS 2251 DEB

ActivoLEO
NORAD 40796·DEBRIS·🇷🇺 Russia

Lanzado Jun 16, 1993 desde Plesetsk Cosmodrome

Loading…

Próximos Pases (próximas 24 horas)

TLE

ActualizadoSource: Space-Track

Época: Sep 13, 2026, 22:32 UTC

1 40796U 93036BVZ 26256.93956029  .00003061  00000-0  35625-3 0  9995
2 40796  74.0120 316.2829 0052678  20.7033 151.9545 14.84766288802392

Sigue COSMOS 2251 DEB en tiempo real con AllMySat

Download on the App Store